owner,sensor,date,latitude,longitude,air_pressure(mBar),qcFlag 
TCOON,ioos:station:TCOON:518:1,2015-12-01T00:24:00Z,29.5150,-94.5133,1015.7,1111122 
TCOON,ioos:station:TCOON:518:1,2015-12-01T01:18:00Z,29.5150,-94.5133,1016.2,1111122 
TCOON,ioos:station:TCOON:518:1,2015-12-01T02:24:00Z,29.5150,-94.5133,1016.1,1111122 
TCOON,ioos:station:TCOON:518:1,2015-12-01T03:12:00Z,29.5150,-94.5133,1016.5,1111122 
TCOON,ioos:station:TCOON:518:1,2015-12-01T19:00:00Z,29.5150,-94.5133,1014.8,1111122 
TCOON,ioos:station:TCOON:518:1,2015-12-01T20:24:00Z,29.5150,-94.5133,1013.8,1111122 
TCOON,ioos:station:TCOON:518:1,2015-12-01T21:24:00Z,29.5150,-94.5133,1013.9,1111122 
TCOON,ioos:station:TCOON:518:1,2015-12-02T19:24:00Z,29.5150,-94.5133,1018.9,1111122 
TCOON,ioos:station:TCOON:518:1,2015-12-02T20:24:00Z,29.5150,-94.5133,1019.0,1111122 
TCOON,ioos:station:TCOON:518:1,2015-12-02T21:24:00Z,29.5150,-94.5133,1019.5,1111122 
TCOON,ioos:station:TCOON:518:1,2015-12-02T22:24:00Z,29.5150,-94.5133,1019.9,1111122 
TCOON,ioos:station:TCOON:518:1,2015-12-03T20:42:00Z,29.5150,-94.5133,1026.6,1111122 
TCOON,ioos:station:TCOON:518:1,2015-12-03T21:24:00Z,29.5150,-94.5133,1026.5,1111122 
TCOON,ioos:station:TCOON:518:1,2015-12-03T22:24:00Z,29.5150,-94.5133,1026.3,1111122 
TCOON,ioos:station:TCOON:518:1,2015-12-03T23:24:00Z,29.5150,-94.5133,1026.6,1111122 
TCOON,ioos:station:TCOON:518:1,2015-12-04T00:24:00Z,29.5150,-94.5133,1027.3,1111122 
TCOON,ioos:station:TCOON:518:1,2015-12-04T01:18:00Z,29.5150,-94.5133,1027.6,1111122 
TCOON,ioos:station:TCOON:518:1,2015-12-05T00:42:00Z,29.5150,-94.5133,1030.0,1111122 
TCOON,ioos:station:TCOON:518:1,2015-12-06T00:42:00Z,29.5150,-94.5133,1029.3,1111122 
TCOON,ioos:station:TCOON:518:1,2015-12-06T19:42:00Z,29.5150,-94.5133,1027.0,1111122 
TCOON,ioos:station:TCOON:518:1,2015-12-06T20:12:00Z,29.5150,-94.5133,1026.5,1111122 
TCOON,ioos:station:TCOON:518:1,2015-12-06T21:12:00Z,29.5150,-94.5133,1025.9,1111122 
TCOON,ioos:station:TCOON:518:1,2015-12-06T22:12:00Z,29.5150,-94.5133,1025.8,1111122 
TCOON,ioos:station:TCOON:518:1,2015-12-06T23:12:00Z,29.5150,-94.5133,1025.9,1111122 
TCOON,ioos:station:TCOON:518:1,2015-12-07T00:12:00Z,29.5150,-94.5133,1026.1,1111122 
TCOON,ioos:station:TCOON:518:1,2015-12-07T01:12:00Z,29.5150,-94.5133,1026.5,1111122 
TCOON,ioos:station:TCOON:518:1,2015-12-07T21:12:00Z,29.5150,-94.5133,1022.1,1111122 
TCOON,ioos:station:TCOON:518:1,2015-12-07T22:12:00Z,29.5150,-94.5133,1021.9,1111122 
TCOON,ioos:station:TCOON:518:1,2015-12-07T23:12:00Z,29.5150,-94.5133,1021.9,1111122 
TCOON,ioos:station:TCOON:518:1,2015-12-08T00:12:00Z,29.5150,-94.5133,1022.1,1111122 
TCOON,ioos:station:TCOON:518:1,2015-12-08T19:12:00Z,29.5150,-94.5133,1017.8,1111122 
TCOON,ioos:station:TCOON:518:1,2015-12-08T20:12:00Z,29.5150,-94.5133,1017.0,1111122 
TCOON,ioos:station:TCOON:518:1,2015-12-08T21:12:00Z,29.5150,-94.5133,1016.8,1111122 
TCOON,ioos:station:TCOON:518:1,2015-12-08T22:12:00Z,29.5150,-94.5133,1016.2,1111122 
TCOON,ioos:station:TCOON:518:1,2015-12-08T23:12:00Z,29.5150,-94.5133,1015.8,1111122 
TCOON,ioos:station:TCOON:518:1,2015-12-09T00:12:00Z,29.5150,-94.5133,1015.7,1111122 
TCOON,ioos:station:TCOON:518:1,2015-12-09T01:12:00Z,29.5150,-94.5133,1015.7,1111122 
TCOON,ioos:station:TCOON:518:1,2015-12-09T19:48:00Z,29.5150,-94.5133,1014.5,1111122 
TCOON,ioos:station:TCOON:518:1,2015-12-09T20:12:00Z,29.5150,-94.5133,1014.3,1111122 
TCOON,ioos:station:TCOON:518:1,2015-12-09T21:12:00Z,29.5150,-94.5133,1013.9,1111122 
TCOON,ioos:station:TCOON:518:1,2015-12-09T22:12:00Z,29.5150,-94.5133,1013.6,1111122 
TCOON,ioos:station:TCOON:518:1,2015-12-09T23:12:00Z,29.5150,-94.5133,1013.8,1111122 
TCOON,ioos:station:TCOON:518:1,2015-12-10T00:12:00Z,29.5150,-94.5133,1014.1,1111122 
TCOON,ioos:station:TCOON:518:1,2015-12-10T15:48:00Z,29.5150,-94.5133,1014.6,1111122 
TCOON,ioos:station:TCOON:518:1,2015-12-10T16:12:00Z,29.5150,-94.5133,1014.4,1111122 
TCOON,ioos:station:TCOON:518:1,2015-12-10T17:12:00Z,29.5150,-94.5133,1014.0,1111122 
TCOON,ioos:station:TCOON:518:1,2015-12-10T18:12:00Z,29.5150,-94.5133,1013.4,1111122 
TCOON,ioos:station:TCOON:518:1,2015-12-10T19:12:00Z,29.5150,-94.5133,1012.4,1111122 
TCOON,ioos:station:TCOON:518:1,2015-12-10T20:12:00Z,29.5150,-94.5133,1011.6,1111122 
TCOON,ioos:station:TCOON:518:1,2015-12-10T21:12:00Z,29.5150,-94.5133,1010.6,1111122 
TCOON,ioos:station:TCOON:518:1,2015-12-10T22:12:00Z,29.5150,-94.5133,1010.5,1111122 
TCOON,ioos:station:TCOON:518:1,2015-12-10T23:12:00Z,29.5150,-94.5133,1010.7,1111122 
TCOON,ioos:station:TCOON:518:1,2015-12-11T00:12:00Z,29.5150,-94.5133,1010.8,1111122 
TCOON,ioos:station:TCOON:518:1,2015-12-11T01:12:00Z,29.5150,-94.5133,1010.6,1111122 
TCOON,ioos:station:TCOON:518:1,2015-12-11T02:12:00Z,29.5150,-94.5133,1010.9,1111122 
TCOON,ioos:station:TCOON:518:1,2015-12-11T03:12:00Z,29.5150,-94.5133,1011.6,1111122 
TCOON,ioos:station:TCOON:518:1,2015-12-11T04:12:00Z,29.5150,-94.5133,1011.7,1111122 
TCOON,ioos:station:TCOON:518:1,2015-12-11T05:12:00Z,29.5150,-94.5133,1011.8,1111122 
TCOON,ioos:station:TCOON:518:1,2015-12-11T06:12:00Z,29.5150,-94.5133,1011.7,1111122 
TCOON,ioos:station:TCOON:518:1,2015-12-11T07:12:00Z,29.5150,-94.5133,1011.5,1111122 
TCOON,ioos:station:TCOON:518:1,2015-12-11T08:12:00Z,29.5150,-94.5133,1011.2,1111122 
TCOON,ioos:station:TCOON:518:1,2015-12-11T09:24:00Z,29.5150,-94.5133,1011.1,1111122 
TCOON,ioos:station:TCOON:518:1,2015-12-11T10:12:00Z,29.5150,-94.5133,1011.2,1111122 
TCOON,ioos:station:TCOON:518:1,2015-12-11T11:12:00Z,29.5150,-94.5133,1011.3,1111122 
TCOON,ioos:station:TCOON:518:1,2015-12-11T12:12:00Z,29.5150,-94.5133,1011.6,1111122 
TCOON,ioos:station:TCOON:518:1,2015-12-11T13:12:00Z,29.5150,-94.5133,1011.9,1111122 
TCOON,ioos:station:TCOON:518:1,2015-12-11T14:12:00Z,29.5150,-94.5133,1012.7,1111122 
TCOON,ioos:station:TCOON:518:1,2015-12-11T15:12:00Z,29.5150,-94.5133,1013.4,1111122 
TCOON,ioos:station:TCOON:518:1,2015-12-11T16:18:00Z,29.5150,-94.5133,1013.9,1111122 
TCOON,ioos:station:TCOON:518:1,2015-12-11T17:12:00Z,29.5150,-94.5133,1013.5,1111122 
TCOON,ioos:station:TCOON:518:1,2015-12-11T18:18:00Z,29.5150,-94.5133,1013.0,1111122 
TCOON,ioos:station:TCOON:518:1,2015-12-11T19:12:00Z,29.5150,-94.5133,1012.3,1111122 
TCOON,ioos:station:TCOON:518:1,2015-12-11T20:12:00Z,29.5150,-94.5133,1012.0,1111122 
TCOON,ioos:station:TCOON:518:1,2015-12-11T21:12:00Z,29.5150,-94.5133,1011.9,1111122 
TCOON,ioos:station:TCOON:518:1,2015-12-11T22:12:00Z,29.5150,-94.5133,1012.1,1111122 
TCOON,ioos:station:TCOON:518:1,2015-12-11T23:12:00Z,29.5150,-94.5133,1012.6,1111122 
TCOON,ioos:station:TCOON:518:1,2015-12-12T00:12:00Z,29.5150,-94.5133,1013.1,1111122 
TCOON,ioos:station:TCOON:518:1,2015-12-12T01:18:00Z,29.5150,-94.5133,1013.2,1111122 
TCOON,ioos:station:TCOON:518:1,2015-12-12T02:12:00Z,29.5150,-94.5133,1013.4,1111122 
TCOON,ioos:station:TCOON:518:1,2015-12-12T03:12:00Z,29.5150,-94.5133,1013.3,1111122 
TCOON,ioos:station:TCOON:518:1,2015-12-12T04:18:00Z,29.5150,-94.5133,1013.1,1111122 
TCOON,ioos:station:TCOON:518:1,2015-12-12T05:12:00Z,29.5150,-94.5133,1013.4,1111122 
TCOON,ioos:station:TCOON:518:1,2015-12-12T06:18:00Z,29.5150,-94.5133,1013.3,1111122 
TCOON,ioos:station:TCOON:518:1,2015-12-12T07:12:00Z,29.5150,-94.5133,1013.3,1111122 
TCOON,ioos:station:TCOON:518:1,2015-12-12T08:12:00Z,29.5150,-94.5133,1013.0,1111122 
TCOON,ioos:station:TCOON:518:1,2015-12-12T09:12:00Z,29.5150,-94.5133,1012.9,1111122 
TCOON,ioos:station:TCOON:518:1,2015-12-12T10:12:00Z,29.5150,-94.5133,1012.7,1111122 
TCOON,ioos:station:TCOON:518:1,2015-12-12T11:12:00Z,29.5150,-94.5133,1012.8,1111122 
TCOON,ioos:station:TCOON:518:1,2015-12-12T12:12:00Z,29.5150,-94.5133,1012.9,1111122 
TCOON,ioos:station:TCOON:518:1,2015-12-12T13:12:00Z,29.5150,-94.5133,1013.6,1111122 
TCOON,ioos:station:TCOON:518:1,2015-12-12T14:12:00Z,29.5150,-94.5133,1013.5,1111122 
TCOON,ioos:station:TCOON:518:1,2015-12-12T15:12:00Z,29.5150,-94.5133,1014.0,1111122 
TCOON,ioos:station:TCOON:518:1,2015-12-12T16:12:00Z,29.5150,-94.5133,1014.8,1111122 
TCOON,ioos:station:TCOON:518:1,2015-12-12T17:12:00Z,29.5150,-94.5133,1014.4,1111122 
TCOON,ioos:station:TCOON:518:1,2015-12-12T18:12:00Z,29.5150,-94.5133,1013.8,1111122 
TCOON,ioos:station:TCOON:518:1,2015-12-12T19:12:00Z,29.5150,-94.5133,1012.8,1111122 
TCOON,ioos:station:TCOON:518:1,2015-12-12T20:12:00Z,29.5150,-94.5133,1012.1,1111122 
TCOON,ioos:station:TCOON:518:1,2015-12-12T21:12:00Z,29.5150,-94.5133,1011.5,1111122 
TCOON,ioos:station:TCOON:518:1,2015-12-12T22:12:00Z,29.5150,-94.5133,1011.1,1111122 
TCOON,ioos:station:TCOON:518:1,2015-12-12T23:12:00Z,29.5150,-94.5133,1010.5,1111122 
TCOON,ioos:station:TCOON:518:1,2015-12-13T00:12:00Z,29.5150,-94.5133,1010.4,1111122 
TCOON,ioos:station:TCOON:518:1,2015-12-13T01:12:00Z,29.5150,-94.5133,1010.7,1111122 
TCOON,ioos:station:TCOON:518:1,2015-12-13T02:12:00Z,29.5150,-94.5133,1010.2,1111122 
TCOON,ioos:station:TCOON:518:1,2015-12-13T03:12:00Z,29.5150,-94.5133,1010.8,1111122 
TCOON,ioos:station:TCOON:518:1,2015-12-13T04:12:00Z,29.5150,-94.5133,1010.6,1111122 
TCOON,ioos:station:TCOON:518:1,2015-12-13T05:12:00Z,29.5150,-94.5133,1010.4,1111122 
TCOON,ioos:station:TCOON:518:1,2015-12-13T06:12:00Z,29.5150,-94.5133,1009.8,1111122 
TCOON,ioos:station:TCOON:518:1,2015-12-13T07:12:00Z,29.5150,-94.5133,1009.7,1111122 
TCOON,ioos:station:TCOON:518:1,2015-12-13T08:12:00Z,29.5150,-94.5133,1008.7,1111122 
TCOON,ioos:station:TCOON:518:1,2015-12-13T09:12:00Z,29.5150,-94.5133,1007.3,1111122 
TCOON,ioos:station:TCOON:518:1,2015-12-13T10:12:00Z,29.5150,-94.5133,1007.2,1111122 
TCOON,ioos:station:TCOON:518:1,2015-12-13T11:12:00Z,29.5150,-94.5133,1006.5,1111122 
TCOON,ioos:station:TCOON:518:1,2015-12-13T12:12:00Z,29.5150,-94.5133,1005.7,1111122 
TCOON,ioos:station:TCOON:518:1,2015-12-13T13:12:00Z,29.5150,-94.5133,1005.0,1111122 
TCOON,ioos:station:TCOON:518:1,2015-12-13T14:12:00Z,29.5150,-94.5133,1005.9,1111122 
TCOON,ioos:station:TCOON:518:1,2015-12-13T15:12:00Z,29.5150,-94.5133,1005.4,1111122 
TCOON,ioos:station:TCOON:518:1,2015-12-13T16:12:00Z,29.5150,-94.5133,1006.1,1111122 
TCOON,ioos:station:TCOON:518:1,2015-12-13T17:12:00Z,29.5150,-94.5133,1007.3,1111122 
TCOON,ioos:station:TCOON:518:1,2015-12-13T18:12:00Z,29.5150,-94.5133,1008.3,1111122 
TCOON,ioos:station:TCOON:518:1,2015-12-13T19:12:00Z,29.5150,-94.5133,1007.9,1111122 
TCOON,ioos:station:TCOON:518:1,2015-12-13T20:12:00Z,29.5150,-94.5133,1008.4,1111122 
TCOON,ioos:station:TCOON:518:1,2015-12-13T21:12:00Z,29.5150,-94.5133,1008.2,1111122 
TCOON,ioos:station:TCOON:518:1,2015-12-13T22:12:00Z,29.5150,-94.5133,1007.2,1111122 
TCOON,ioos:station:TCOON:518:1,2015-12-13T23:12:00Z,29.5150,-94.5133,1007.8,1111122 
TCOON,ioos:station:TCOON:518:1,2015-12-14T00:12:00Z,29.5150,-94.5133,1007.7,1111122 
TCOON,ioos:station:TCOON:518:1,2015-12-14T01:12:00Z,29.5150,-94.5133,1008.6,1111122 
TCOON,ioos:station:TCOON:518:1,2015-12-14T02:12:00Z,29.5150,-94.5133,1008.6,1111122 
TCOON,ioos:station:TCOON:518:1,2015-12-14T03:12:00Z,29.5150,-94.5133,1009.1,1111122 
TCOON,ioos:station:TCOON:518:1,2015-12-14T04:12:00Z,29.5150,-94.5133,1009.6,1111122 
TCOON,ioos:station:TCOON:518:1,2015-12-14T05:12:00Z,29.5150,-94.5133,1009.5,1111122 
TCOON,ioos:station:TCOON:518:1,2015-12-14T06:18:00Z,29.5150,-94.5133,1009.2,1111122 
TCOON,ioos:station:TCOON:518:1,2015-12-14T07:12:00Z,29.5150,-94.5133,1008.9,1111122 
TCOON,ioos:station:TCOON:518:1,2015-12-14T08:12:00Z,29.5150,-94.5133,1008.8,1111122 
TCOON,ioos:station:TCOON:518:1,2015-12-14T09:18:00Z,29.5150,-94.5133,1008.7,1111122 
TCOON,ioos:station:TCOON:518:1,2015-12-14T10:12:00Z,29.5150,-94.5133,1008.7,1111122 
TCOON,ioos:station:TCOON:518:1,2015-12-14T11:12:00Z,29.5150,-94.5133,1008.9,1111122 
TCOON,ioos:station:TCOON:518:1,2015-12-14T12:12:00Z,29.5150,-94.5133,1009.8,1111122 
TCOON,ioos:station:TCOON:518:1,2015-12-14T13:12:00Z,29.5150,-94.5133,1010.7,1111122 
TCOON,ioos:station:TCOON:518:1,2015-12-14T14:24:00Z,29.5150,-94.5133,1011.0,1111122 
TCOON,ioos:station:TCOON:518:1,2015-12-14T15:12:00Z,29.5150,-94.5133,1011.3,1111122 
TCOON,ioos:station:TCOON:518:1,2015-12-14T16:12:00Z,29.5150,-94.5133,1012.0,1111122 
TCOON,ioos:station:TCOON:518:1,2015-12-14T17:12:00Z,29.5150,-94.5133,1011.4,1111122 
TCOON,ioos:station:TCOON:518:1,2015-12-14T18:12:00Z,29.5150,-94.5133,1010.7,1111122 
TCOON,ioos:station:TCOON:518:1,2015-12-14T19:12:00Z,29.5150,-94.5133,1010.1,1111122 
TCOON,ioos:station:TCOON:518:1,2015-12-14T20:12:00Z,29.5150,-94.5133,1009.6,1111122 
TCOON,ioos:station:TCOON:518:1,2015-12-14T21:12:00Z,29.5150,-94.5133,1009.4,1111122 
TCOON,ioos:station:TCOON:518:1,2015-12-14T22:12:00Z,29.5150,-94.5133,1009.4,1111122 
TCOON,ioos:station:TCOON:518:1,2015-12-14T23:12:00Z,29.5150,-94.5133,1009.4,1111122 
TCOON,ioos:station:TCOON:518:1,2015-12-15T00:12:00Z,29.5150,-94.5133,1009.7,1111122 
TCOON,ioos:station:TCOON:518:1,2015-12-15T01:12:00Z,29.5150,-94.5133,1009.8,1111122 
TCOON,ioos:station:TCOON:518:1,2015-12-15T02:12:00Z,29.5150,-94.5133,1010.0,1111122 
TCOON,ioos:station:TCOON:518:1,2015-12-15T03:12:00Z,29.5150,-94.5133,1010.4,1111122 
TCOON,ioos:station:TCOON:518:1,2015-12-15T04:18:00Z,29.5150,-94.5133,1010.5,1111122 
TCOON,ioos:station:TCOON:518:1,2015-12-15T05:12:00Z,29.5150,-94.5133,1010.3,1111122 
TCOON,ioos:station:TCOON:518:1,2015-12-15T06:12:00Z,29.5150,-94.5133,1009.9,1111122 
TCOON,ioos:station:TCOON:518:1,2015-12-15T07:12:00Z,29.5150,-94.5133,1009.5,1111122 
TCOON,ioos:station:TCOON:518:1,2015-12-15T08:12:00Z,29.5150,-94.5133,1009.2,1111122 
TCOON,ioos:station:TCOON:518:1,2015-12-15T09:18:00Z,29.5150,-94.5133,1009.1,1111122 
TCOON,ioos:station:TCOON:518:1,2015-12-15T10:18:00Z,29.5150,-94.5133,1008.7,1111122 
TCOON,ioos:station:TCOON:518:1,2015-12-15T11:12:00Z,29.5150,-94.5133,1008.3,1111122 
TCOON,ioos:station:TCOON:518:1,2015-12-15T12:12:00Z,29.5150,-94.5133,1008.8,1111122 
TCOON,ioos:station:TCOON:518:1,2015-12-15T13:12:00Z,29.5150,-94.5133,1009.1,1111122 
TCOON,ioos:station:TCOON:518:1,2015-12-15T14:24:00Z,29.5150,-94.5133,1009.7,1111122 
TCOON,ioos:station:TCOON:518:1,2015-12-15T15:12:00Z,29.5150,-94.5133,1010.1,1111122 
TCOON,ioos:station:TCOON:518:1,2015-12-15T16:12:00Z,29.5150,-94.5133,1010.4,1111122 
TCOON,ioos:station:TCOON:518:1,2015-12-15T17:12:00Z,29.5150,-94.5133,1009.7,1111122 
TCOON,ioos:station:TCOON:518:1,2015-12-15T18:12:00Z,29.5150,-94.5133,1008.5,1111122 
TCOON,ioos:station:TCOON:518:1,2015-12-15T19:12:00Z,29.5150,-94.5133,1007.8,1111122 
TCOON,ioos:station:TCOON:518:1,2015-12-15T20:12:00Z,29.5150,-94.5133,1007.1,1111122 
TCOON,ioos:station:TCOON:518:1,2015-12-15T21:12:00Z,29.5150,-94.5133,1006.8,1111122 
TCOON,ioos:station:TCOON:518:1,2015-12-15T22:12:00Z,29.5150,-94.5133,1006.8,1111122 
TCOON,ioos:station:TCOON:518:1,2015-12-15T23:12:00Z,29.5150,-94.5133,1006.9,1111122 
TCOON,ioos:station:TCOON:518:1,2015-12-16T00:12:00Z,29.5150,-94.5133,1006.8,1111122 
TCOON,ioos:station:TCOON:518:1,2015-12-16T01:12:00Z,29.5150,-94.5133,1007.1,1111122 
TCOON,ioos:station:TCOON:518:1,2015-12-16T02:12:00Z,29.5150,-94.5133,1007.4,1111122 
TCOON,ioos:station:TCOON:518:1,2015-12-16T03:12:00Z,29.5150,-94.5133,1007.6,1111122 
TCOON,ioos:station:TCOON:518:1,2015-12-16T04:12:00Z,29.5150,-94.5133,1007.6,1111122 
TCOON,ioos:station:TCOON:518:1,2015-12-16T05:12:00Z,29.5150,-94.5133,1007.5,1111122 
TCOON,ioos:station:TCOON:518:1,2015-12-16T06:18:00Z,29.5150,-94.5133,1007.5,1111122 
TCOON,ioos:station:TCOON:518:1,2015-12-16T07:24:00Z,29.5150,-94.5133,1007.3,1111122 
TCOON,ioos:station:TCOON:518:1,2015-12-16T08:12:00Z,29.5150,-94.5133,1007.6,1111122 
TCOON,ioos:station:TCOON:518:1,2015-12-16T09:24:00Z,29.5150,-94.5133,1007.6,1111122 
TCOON,ioos:station:TCOON:518:1,2015-12-16T10:12:00Z,29.5150,-94.5133,1007.0,1111122 
TCOON,ioos:station:TCOON:518:1,2015-12-16T11:12:00Z,29.5150,-94.5133,1007.0,1111122 
TCOON,ioos:station:TCOON:518:1,2015-12-16T12:12:00Z,29.5150,-94.5133,1007.5,1111122 
TCOON,ioos:station:TCOON:518:1,2015-12-16T13:12:00Z,29.5150,-94.5133,1007.8,1111122 
TCOON,ioos:station:TCOON:518:1,2015-12-16T14:12:00Z,29.5150,-94.5133,1008.6,1111122 
TCOON,ioos:station:TCOON:518:1,2015-12-16T15:12:00Z,29.5150,-94.5133,1010.1,1111122 
TCOON,ioos:station:TCOON:518:1,2015-12-16T16:12:00Z,29.5150,-94.5133,1010.2,1111122 
TCOON,ioos:station:TCOON:518:1,2015-12-16T17:12:00Z,29.5150,-94.5133,1010.2,1111122 
TCOON,ioos:station:TCOON:518:1,2015-12-16T18:12:00Z,29.5150,-94.5133,1009.3,1111122 
TCOON,ioos:station:TCOON:518:1,2015-12-16T19:12:00Z,29.5150,-94.5133,1008.6,1111122 
TCOON,ioos:station:TCOON:518:1,2015-12-16T20:12:00Z,29.5150,-94.5133,1008.7,1111122 
TCOON,ioos:station:TCOON:518:1,2015-12-16T21:12:00Z,29.5150,-94.5133,1008.5,1111122 
TCOON,ioos:station:TCOON:518:1,2015-12-16T22:12:00Z,29.5150,-94.5133,1008.9,1111122 
TCOON,ioos:station:TCOON:518:1,2015-12-16T23:12:00Z,29.5150,-94.5133,1009.6,1111122 
TCOON,ioos:station:TCOON:518:1,2015-12-17T00:12:00Z,29.5150,-94.5133,1010.0,1111122 
TCOON,ioos:station:TCOON:518:1,2015-12-17T01:12:00Z,29.5150,-94.5133,1010.4,1111122 
TCOON,ioos:station:TCOON:518:1,2015-12-17T02:12:00Z,29.5150,-94.5133,1011.6,1111122 
TCOON,ioos:station:TCOON:518:1,2015-12-17T03:12:00Z,29.5150,-94.5133,1012.7,1111122 
TCOON,ioos:station:TCOON:518:1,2015-12-17T04:12:00Z,29.5150,-94.5133,1013.2,1111122 
TCOON,ioos:station:TCOON:518:1,2015-12-17T05:12:00Z,29.5150,-94.5133,1013.9,1111122 
TCOON,ioos:station:TCOON:518:1,2015-12-17T06:12:00Z,29.5150,-94.5133,1013.6,1111122 
TCOON,ioos:station:TCOON:518:1,2015-12-17T07:12:00Z,29.5150,-94.5133,1013.1,1111122 
TCOON,ioos:station:TCOON:518:1,2015-12-17T08:12:00Z,29.5150,-94.5133,1013.7,1111122 
TCOON,ioos:station:TCOON:518:1,2015-12-17T09:18:00Z,29.5150,-94.5133,1014.2,1111122 
TCOON,ioos:station:TCOON:518:1,2015-12-17T10:12:00Z,29.5150,-94.5133,1014.2,1111122 
TCOON,ioos:station:TCOON:518:1,2015-12-17T11:12:00Z,29.5150,-94.5133,1014.2,1111122 
TCOON,ioos:station:TCOON:518:1,2015-12-17T12:12:00Z,29.5150,-94.5133,1014.8,1111122 
TCOON,ioos:station:TCOON:518:1,2015-12-17T13:12:00Z,29.5150,-94.5133,1015.6,1111122 
TCOON,ioos:station:TCOON:518:1,2015-12-17T14:12:00Z,29.5150,-94.5133,1016.3,1111122 
TCOON,ioos:station:TCOON:518:1,2015-12-17T15:12:00Z,29.5150,-94.5133,1017.2,1111122 
TCOON,ioos:station:TCOON:518:1,2015-12-17T16:18:00Z,29.5150,-94.5133,1017.6,1111122 
TCOON,ioos:station:TCOON:518:1,2015-12-17T17:12:00Z,29.5150,-94.5133,1017.1,1111122 
TCOON,ioos:station:TCOON:518:1,2015-12-17T18:12:00Z,29.5150,-94.5133,1016.6,1111122 
TCOON,ioos:station:TCOON:518:1,2015-12-17T19:12:00Z,29.5150,-94.5133,1016.1,1111122 
TCOON,ioos:station:TCOON:518:1,2015-12-17T20:12:00Z,29.5150,-94.5133,1015.6,1111122 
TCOON,ioos:station:TCOON:518:1,2015-12-17T21:12:00Z,29.5150,-94.5133,1015.6,1111122 
TCOON,ioos:station:TCOON:518:1,2015-12-17T22:12:00Z,29.5150,-94.5133,1015.8,1111122 
TCOON,ioos:station:TCOON:518:1,2015-12-17T23:12:00Z,29.5150,-94.5133,1016.4,1111122 
TCOON,ioos:station:TCOON:518:1,2015-12-18T00:12:00Z,29.5150,-94.5133,1017.0,1111122 
TCOON,ioos:station:TCOON:518:1,2015-12-18T01:12:00Z,29.5150,-94.5133,1017.9,1111122 
TCOON,ioos:station:TCOON:518:1,2015-12-18T02:12:00Z,29.5150,-94.5133,1018.7,1111122 
TCOON,ioos:station:TCOON:518:1,2015-12-18T03:12:00Z,29.5150,-94.5133,1019.4,1111122 
TCOON,ioos:station:TCOON:518:1,2015-12-18T04:12:00Z,29.5150,-94.5133,1020.1,1111122 
TCOON,ioos:station:TCOON:518:1,2015-12-18T05:12:00Z,29.5150,-94.5133,1020.6,1111122 
TCOON,ioos:station:TCOON:518:1,2015-12-18T06:12:00Z,29.5150,-94.5133,1021.1,1111122 
TCOON,ioos:station:TCOON:518:1,2015-12-18T07:12:00Z,29.5150,-94.5133,1021.6,1111122 
TCOON,ioos:station:TCOON:518:1,2015-12-18T08:12:00Z,29.5150,-94.5133,1022.3,1111122 
TCOON,ioos:station:TCOON:518:1,2015-12-18T09:18:00Z,29.5150,-94.5133,1022.8,1111122 
TCOON,ioos:station:TCOON:518:1,2015-12-18T10:12:00Z,29.5150,-94.5133,1023.3,1111122 
TCOON,ioos:station:TCOON:518:1,2015-12-18T11:12:00Z,29.5150,-94.5133,1023.9,1111122 
TCOON,ioos:station:TCOON:518:1,2015-12-18T12:12:00Z,29.5150,-94.5133,1024.7,1111122 
TCOON,ioos:station:TCOON:518:1,2015-12-18T13:12:00Z,29.5150,-94.5133,1025.7,1111122 
TCOON,ioos:station:TCOON:518:1,2015-12-18T14:12:00Z,29.5150,-94.5133,1026.7,1111122 
TCOON,ioos:station:TCOON:518:1,2015-12-18T15:12:00Z,29.5150,-94.5133,1028.1,1111122 
TCOON,ioos:station:TCOON:518:1,2015-12-18T16:12:00Z,29.5150,-94.5133,1028.5,1111122 
TCOON,ioos:station:TCOON:518:1,2015-12-18T17:12:00Z,29.5150,-94.5133,1028.2,1111122 
TCOON,ioos:station:TCOON:518:1,2015-12-18T18:12:00Z,29.5150,-94.5133,1026.7,1111122 
TCOON,ioos:station:TCOON:518:1,2015-12-18T19:12:00Z,29.5150,-94.5133,1026.6,1111122 
TCOON,ioos:station:TCOON:518:1,2015-12-18T20:12:00Z,29.5150,-94.5133,1026.7,1111122 
TCOON,ioos:station:TCOON:518:1,2015-12-18T21:12:00Z,29.5150,-94.5133,1026.7,1111122 
TCOON,ioos:station:TCOON:518:1,2015-12-18T22:12:00Z,29.5150,-94.5133,1026.8,1111122 
TCOON,ioos:station:TCOON:518:1,2015-12-18T23:12:00Z,29.5150,-94.5133,1027.2,1111122 
TCOON,ioos:station:TCOON:518:1,2015-12-19T00:12:00Z,29.5150,-94.5133,1027.7,1111122 
TCOON,ioos:station:TCOON:518:1,2015-12-19T01:12:00Z,29.5150,-94.5133,1028.2,1111122 
TCOON,ioos:station:TCOON:518:1,2015-12-19T02:12:00Z,29.5150,-94.5133,1028.5,1111122 
TCOON,ioos:station:TCOON:518:1,2015-12-19T03:12:00Z,29.5150,-94.5133,1029.1,1111122 
TCOON,ioos:station:TCOON:518:1,2015-12-19T04:12:00Z,29.5150,-94.5133,1029.2,1111122 
TCOON,ioos:station:TCOON:518:1,2015-12-19T05:12:00Z,29.5150,-94.5133,1029.3,1111122 
TCOON,ioos:station:TCOON:518:1,2015-12-19T06:12:00Z,29.5150,-94.5133,1029.4,1111122 
TCOON,ioos:station:TCOON:518:1,2015-12-19T07:12:00Z,29.5150,-94.5133,1029.5,1111122 
TCOON,ioos:station:TCOON:518:1,2015-12-19T08:12:00Z,29.5150,-94.5133,1029.3,1111122 
TCOON,ioos:station:TCOON:518:1,2015-12-19T09:18:00Z,29.5150,-94.5133,1029.7,1111122 
TCOON,ioos:station:TCOON:518:1,2015-12-19T10:12:00Z,29.5150,-94.5133,1030.0,1111122 
TCOON,ioos:station:TCOON:518:1,2015-12-19T11:12:00Z,29.5150,-94.5133,1030.2,1111122 
TCOON,ioos:station:TCOON:518:1,2015-12-19T12:12:00Z,29.5150,-94.5133,1031.1,1111122 
TCOON,ioos:station:TCOON:518:1,2015-12-19T13:12:00Z,29.5150,-94.5133,1031.3,1111122 
TCOON,ioos:station:TCOON:518:1,2015-12-19T14:12:00Z,29.5150,-94.5133,1031.6,1111122 
TCOON,ioos:station:TCOON:518:1,2015-12-19T15:12:00Z,29.5150,-94.5133,1032.3,1111122 
TCOON,ioos:station:TCOON:518:1,2015-12-19T16:12:00Z,29.5150,-94.5133,1033.0,1111122 
TCOON,ioos:station:TCOON:518:1,2015-12-19T17:12:00Z,29.5150,-94.5133,1033.1,1111122 
TCOON,ioos:station:TCOON:518:1,2015-12-19T18:12:00Z,29.5150,-94.5133,1032.2,1111122 
TCOON,ioos:station:TCOON:518:1,2015-12-19T19:12:00Z,29.5150,-94.5133,1031.3,1111122 
TCOON,ioos:station:TCOON:518:1,2015-12-19T20:12:00Z,29.5150,-94.5133,1030.5,1111122 
TCOON,ioos:station:TCOON:518:1,2015-12-19T21:12:00Z,29.5150,-94.5133,1030.0,1111122 
TCOON,ioos:station:TCOON:518:1,2015-12-19T22:12:00Z,29.5150,-94.5133,1030.2,1111122 
TCOON,ioos:station:TCOON:518:1,2015-12-19T23:12:00Z,29.5150,-94.5133,1030.1,1111122 
TCOON,ioos:station:TCOON:518:1,2015-12-20T00:12:00Z,29.5150,-94.5133,1030.1,1111122 
TCOON,ioos:station:TCOON:518:1,2015-12-20T01:12:00Z,29.5150,-94.5133,1030.0,1111122 
TCOON,ioos:station:TCOON:518:1,2015-12-20T02:12:00Z,29.5150,-94.5133,1029.7,1111122 
TCOON,ioos:station:TCOON:518:1,2015-12-20T03:12:00Z,29.5150,-94.5133,1029.3,1111122 
TCOON,ioos:station:TCOON:518:1,2015-12-20T04:12:00Z,29.5150,-94.5133,1029.3,1111122 
TCOON,ioos:station:TCOON:518:1,2015-12-20T05:12:00Z,29.5150,-94.5133,1029.2,1111122 
TCOON,ioos:station:TCOON:518:1,2015-12-20T06:12:00Z,29.5150,-94.5133,1028.4,1111122 
TCOON,ioos:station:TCOON:518:1,2015-12-20T07:30:00Z,29.5150,-94.5133,1027.9,1111122 
TCOON,ioos:station:TCOON:518:1,2015-12-20T08:18:00Z,29.5150,-94.5133,1027.3,1111122 
TCOON,ioos:station:TCOON:518:1,2015-12-20T09:24:00Z,29.5150,-94.5133,1026.1,1111122 
TCOON,ioos:station:TCOON:518:1,2015-12-20T10:54:00Z,29.5150,-94.5133,1025.3,1111122 
TCOON,ioos:station:TCOON:518:1,2015-12-20T11:12:00Z,29.5150,-94.5133,1025.4,1111122 
TCOON,ioos:station:TCOON:518:1,2015-12-20T12:12:00Z,29.5150,-94.5133,1025.2,1111122 